Αρχική σελίδα
METAR-TAF:

METAR-TAF

Αεροδρόμια :

Eagle, Αλάσκα, Ηνωμένες Πολιτείες Αμερικής

γεωγραφικό πλάτος: 64-46-35N, γεωγραφικό μήκος: 141-09-03W, υψόμετρο: 268 μ

Παρών καιρός

Η αναφορά έγινε 3 ώρες και 21 λεπτά πριν, στις 01:53 UTC
Ήπιος άνεμος
Θερμοκρασία -24°C
Υγρασία 76%
Πίεση 1011 hPa
Ορατότητα: 16.1 χλμ
Καθαρός ουρανός

METAR: PAEG 280153Z AUTO 00000KT 10SM CLR M24/M27 A2985 RMK SLP144 T12441272 TSNO VIA AUTODIAL

Χρόνος: 20:14 (05:14 UTC)


TAF: λείπει

Μετεωρολογικές αναφορές και προγνώσεις για περισσότερα από 4000 αεροδρόμια (δελτία METAR και TAF).

Οι διαθέσιμοι σταθμοί απεικονίζονται στο χάρτη με κίτρινες και κόκκινες κουκκίδες.

Μετακινήστε το ποντίκι πάνω από τις κουκκίδες για να δείτε το όνομα του σταθμού.

Στη συνέχεια, κάντε κλικ για να δείτε τις μετεωρολογικές αναφορές και τις προγνώσεις καιρού.

Για να αλλάξετε το χάρτη: κάντε κλικ στα πράσινα κουμπιά με τον μαύρο σταυρό για να ζουμάρετε, στο πράσινο κουμπί με την παύλα για να αφαιρέσετε το ζουμ ή στα πράσινα βέλη για να αντιπαραβάλλετε χάρτες.


METAR-TAF: